This demonstration page uses our WeatherBlox Daily Observations layout. Learn more.

Left ArrowRight Arrow

39.29038, -76.61219

Hourly Observations for March 3, 2015

Temp ( °F °C ) Dew Point ( °F °C ) Humidity (%) Winds ( mph kmh ) Pressure ( in mb ) Visibility ( mi km ) Precip ( " mm )
12:54 am 00:54 undefined 1 -17 N/A N/A undefined N/A 30.42 1030 N/A 0.00 0.00
1:54 am 01:54 undefined 1 -17 N/A N/A undefined N/A 30.41 1030 N/A 0.00 0.00
2:54 am 02:54 undefined 1 -17 N/A N/A undefined N/A 30.42 1030 N/A 0.00 0.00
3:54 am 03:54 undefined 1 -17 N/A N/A undefined N/A 30.42 1030 N/A 0.00 0.00
4:54 am 04:54 undefined 1 -17 N/A N/A undefined N/A 30.41 1030 N/A 0.00 0.00
5:54 am 05:54 undefined 1 -17 N/A N/A undefined N/A 30.43 1031 N/A 0.00 0.00
6:54 am 06:54 undefined 1 -17 N/A N/A undefined N/A 30.43 1030 N/A 0.00 0.00
7:54 am 07:54 undefined 1 -17 N/A N/A undefined N/A 30.46 1032 N/A 0.00 0.00
8:54 am 08:54 undefined 1 -17 N/A N/A undefined N/A 30.47 1032 N/A 0.00 0.00
9:54 am 09:54 undefined 1 -17 N/A N/A undefined N/A 30.44 1031 N/A 0.00 0.00
10:54 am 10:54 undefined 30 -1.1 15 -9.4 54 54 undefined N/A 30.40 1030 N/A 0.00 0.00
11:19 am 11:19 undefined 30 -1.1 15 -9.4 54 54 undefined N/A 30.53 1034 N/A 0.00 0.00
11:54 am 11:54 undefined 30 -1.1 16 -8.9 56 56 undefined N/A 30.38 1029 N/A 0.00 0.00
12:54 pm 12:54 undefined 30 -1.1 19 -7.2 64 64 undefined N/A 30.30 1026 N/A 0.00 0.00
1:54 pm 13:54 undefined 31 -0.6 22 -5.6 69 69 undefined N/A 30.25 1025 N/A 0.01 0.25
2:54 pm 14:54 undefined 30 -1.1 24 -4.4 79 79 undefined N/A 30.22 1023 N/A 0.02 0.51
3:54 pm 15:54 undefined 31 -0.6 25 -3.9 79 79 undefined N/A 30.17 1022 N/A 0.01 0.25
4:54 pm 16:54 undefined 31 -0.6 26 -3.3 82 82 undefined N/A 30.14 1021 N/A 0.03 0.76
5:54 pm 17:54 undefined 31 -0.6 27 -2.8 85 85 undefined N/A 30.11 1020 N/A 0.03 0.76
6:54 pm 18:54 undefined 31 -0.6 27 -2.8 85 85 undefined N/A 30.07 1018 N/A 0.02 0.51
7:54 pm 19:54 undefined 32 0 28 -2.2 85 85 undefined N/A 30.03 1017 N/A 0.01 0.25
8:54 pm 20:54 undefined 32 0 28 -2.2 85 85 undefined N/A 29.98 1015 N/A 0.00 0.00
9:54 pm 21:54 undefined 33 0.6 28 -2.2 82 82 undefined N/A 29.94 1014 N/A 0.00 0.00
10:54 pm 22:54 undefined 33 0.6 29 -1.7 85 85 undefined N/A 29.91 1013 N/A 0.00 0.00
11:54 pm 23:54 undefined 34 1.1 31 -0.6 89 89 undefined N/A 29.87 1012 N/A 0.00 0.00

Powered by AerisWeather